User: anonymous   Login
Location: Chervonnoye
(48.6000°N, 34.4000°E)
Time: 13:00:00
(UTC+00:00)
Language:

FO-99 - Orbit

View from above orbital plane
View from above orbital plane
View from above satellite
View from above satellite

Ground track
Ground track

The orbit data is extracted from the following two-line orbital elements,

1 43937U 19003F   21340.09905108  .00003612  00000-0  13847-3 0  9999
2 43937  97.1560  16.3124 0024043 121.0682 239.2921 15.26852579160449
Epoch (UTC): 06 December 2021 02:22:38
Eccentricity: 0.0024043
inclination: 97.1560°
perigee height: 469 km
apogee height: 502 km
right ascension of ascending node: 16.3124°
argument of perigee: 121.0682°
revolutions per day: 15.26852579
mean anomaly at epoch: 239.2921°
orbit number at epoch: 16044

The dashed part of the orbit path shows where the satellite is in the earth's shadow,  

DLR